Regional Weather Roundup
Issued by NWS

Home | Current Version | Previous Version | Graphics & Text | Print | Product List | Glossary On
Versions: 1 2 3 4 5 6 7 8 9 10 11 12 13 14 15 16 17 18 19 20 21 22 23 24 25 26 27 28 29 30 31 32 33 34 35 36 37 38 39 40 41 42 43 44 45 46 47 48 49 50
000
ASUS44 KMEG 162100
RWRTN
TENNESSEE HOURLY STATE WEATHER ROUNDUP
NATIONAL WEATHER SERVICE MEMPHIS TN
300 PM CST MON JAN 16 2017

TNZ002-004-019-021-049-052-054-088>092-162200-
WEST TENNESSEE

CITY           SKY/WX    TMP DP  RH WIND       PRES   REMARKS
MEMPHIS INTL   LGT RAIN  67  62  84 S12       30.02F
NWS MEMPHIS      N/A     67 N/A N/A MISG        N/A
JACKSON        CLOUDY    69  59  70 S8        30.04F
DYERSBURG      PTSUNNY   66  57  72 S7        30.02F
UNION CITY     MOSUNNY   64  64 100 CALM      30.02S
PARIS          PTSUNNY   63  54  72 S7        30.06R
$$

TNZ008-025-027-028-033-062-065-066-162200-
NORTH MIDDLE TENNESSEE

CITY           SKY/WX    TMP DP  RH WIND       PRES   REMARKS
NASHVILLE      CLOUDY    70  51  51 S13       30.12F
CLARKSVILLE    PTSUNNY   68  50  52 S14       30.07F
SMYRNA         CLOUDY    70  52  52 S12       30.13S
CROSSVILLE     MOSUNNY   61  51  70 S6        30.20F
$$

TNZ061-075-076-078-094-096-097-162200-
SOUTH MIDDLE TENNESSEE

CITY           SKY/WX    TMP DP  RH WIND       PRES   REMARKS
TULLAHOMA      PTSUNNY   68  48  49 SW7       30.16S
WINCHESTER     PTSUNNY   70  48  46 S10       30.16S
COLUMBIA       PTSUNNY   70  55  60 S9        30.10S
SHELBYVILLE    CLOUDY    70  54  56 S8        30.16R
$$

TNZ017-018-042-046-047-162200-
NORTHEAST TENNESSEE

CITY           SKY/WX    TMP DP  RH WIND       PRES   REMARKS
TRI CITIES     PTSUNNY   66  46  48 SW7       30.23F
$$

TNZ012-013-036-069-073-074-162200-
CENTRAL EAST TENNESSEE

CITY           SKY/WX    TMP DP  RH WIND       PRES   REMARKS
KNOXVILLE      CLOUDY    63  53  70 CALM      30.20F
OAK RIDGE      CLOUDY    63  53  70 CALM      30.22F
GATLINBURG     CLOUDY    61  55  82 CALM      30.21F
$$

TNZ083-085-099-162200-
SOUTHEAST TENNESSEE

CITY           SKY/WX    TMP DP  RH WIND       PRES   REMARKS
CHATTANOOGA    PTSUNNY   68  52  56 CALM      30.18F
$$

SKY/WX REPORTED AS FAIR MEANS FEW OR NO CLOUDS BELOW
12 THOUSAND FEET.





USA.gov is the U.S. government's official web portal to all federal, state and local government web resources and services.